Hill City, KS

11:26 PM CDT on June 28, 2017 (GMT -0500)
Hill City Municipal

Weather History for KHLC - June, 2013

Change the Weather History Date:

Wednesday, June 12, 2013

  Actual Average Record
Temperature  
Mean Temperature 82 °F 72 °F  
Max Temperature 99 °F 85 °F 105 °F (1953)
Min Temperature 65 °F 59 °F 41 °F (1910)
Cooling Degree Days 20    
Growing Degree Days 34 (Base 50)    
Moisture  
Dew Point 57 °F    
Average Humidity 44    
Maximum Humidity 78    
Minimum Humidity 18    
Precipitation  
Precipitation 0.00 in 0.09 in 2.18 in (1999)
Month to date precipitation 1.13 1.22  
Year to date precipitation 5.47 9.72  
Sea Level Pressure  
Sea Level Pressure 29.81 in    
Wind  
Wind Speed 16 mph (North)    
Max Wind Speed 22 mph    
Max Gust Speed 34 mph    
Visibility 10 miles    
Events      
T = Trace of Precipitation, MM = Missing Value Source: NWS Daily Summary

Daily Weather History Graph

Daily Weather History Graph

Search for Another Location

Airport or City:

Trip Planner

Search our weather history database for the weather conditions in past years. The results will help you decide how hot, cold, wet, or windy it might be!

Date:

Astronomy

Jun. 12, 2013 Rise Set
Actual Time 6:11 AM CDT 9:06 PM CDT
Civil Twilight 5:39 AM CDT 9:39 PM CDT
Nautical Twilight 4:58 AM CDT 10:19 PM CDT
Astronomical Twilight 4:11 AM CDT 11:06 PM CDT
Moon 9:51 AM CDT (6/12) 11:44 PM CDT (6/12)
Length of Visible Light 15h 59m
Length of Day
14h 54m
Waxing Crescent, 14% of the Moon is Illuminated
Jun 12
Waxing Crescent
Jun 16
First Quarter
Jun 23
Full
Jun 29
Last Quarter
Jul 8
New

Hourly Weather History & Observations

Time (CDT) Temp. Heat Index Dew Point Humidity Pressure Visibility Wind Dir Wind Speed Gust Speed Precip Events Conditions
12:53 AM 84.9 °F - 52.0 °F 32% 29.54 in 10.0 mi SSW 21.9 mph 34.5 mph N/A   Clear
1:53 AM 84.9 °F - 51.1 °F 31% 29.55 in 10.0 mi SSW 20.7 mph 32.2 mph N/A   Clear
2:53 AM 84.0 °F - 50.0 °F 31% 29.58 in 10.0 mi WSW 19.6 mph 27.6 mph N/A   Clear
3:53 AM 78.1 °F - 59.0 °F 52% 29.63 in 10.0 mi WNW 15.0 mph 26.5 mph N/A   Clear
4:53 AM 75.0 °F - 64.9 °F 71% 29.66 in 10.0 mi NW 13.8 mph - N/A   Clear
5:53 AM 72.0 °F - 64.9 °F 78% 29.71 in 10.0 mi WNW 9.2 mph - N/A   Clear
6:53 AM 72.0 °F - 64.0 °F 76% 29.75 in 10.0 mi NNW 9.2 mph - N/A   Clear
7:53 AM 75.0 °F - 64.0 °F 69% 29.78 in 10.0 mi NNW 16.1 mph 20.7 mph N/A   Clear
8:53 AM 78.1 °F - 66.0 °F 66% 29.83 in 10.0 mi North 21.9 mph 28.8 mph N/A   Clear
9:53 AM 82.0 °F 84.1 °F 66.0 °F 58% 29.83 in 10.0 mi NNW 15.0 mph 21.9 mph N/A   Clear
10:53 AM 87.1 °F 88.3 °F 64.0 °F 46% 29.85 in 10.0 mi NNW 11.5 mph 17.3 mph N/A   Clear
11:53 AM 91.0 °F 91.5 °F 62.1 °F 38% 29.86 in 10.0 mi North 18.4 mph 26.5 mph N/A   Clear
12:53 PM 93.9 °F 92.2 °F 55.9 °F 28% 29.86 in 10.0 mi NNW 16.1 mph - N/A   Clear
1:53 PM 96.1 °F 94.5 °F 55.9 °F 26% 29.86 in 10.0 mi North 15.0 mph 20.7 mph N/A   Clear
2:53 PM 97.0 °F 94.6 °F 53.1 °F 23% 29.85 in 10.0 mi North 13.8 mph 21.9 mph N/A   Clear
3:53 PM 98.1 °F - 51.1 °F 20% 29.85 in 10.0 mi Variable 5.8 mph 19.6 mph N/A   Clear
4:53 PM 98.1 °F - 48.0 °F 18% 29.85 in 10.0 mi North 12.7 mph - N/A   Clear
5:53 PM 97.0 °F - 51.1 °F 21% 29.87 in 10.0 mi NNE 11.5 mph 19.6 mph N/A   Clear
6:53 PM 95.0 °F - 48.9 °F 21% 29.87 in 10.0 mi NNE 11.5 mph 18.4 mph N/A   Clear
7:53 PM 91.9 °F 89.5 °F 54.0 °F 27% 29.90 in 10.0 mi ENE 13.8 mph - N/A   Clear
8:53 PM 84.0 °F 83.3 °F 57.0 °F 40% 29.94 in 10.0 mi NE 10.4 mph - N/A   Clear
9:53 PM 75.9 °F - 57.9 °F 54% 29.97 in 10.0 mi NE 16.1 mph 27.6 mph N/A   Clear
10:53 PM 71.1 °F - 55.9 °F 59% 30.01 in 10.0 mi NE 13.8 mph 25.3 mph N/A   Clear
11:53 PM 69.1 °F - 55.0 °F 61% 30.01 in 10.0 mi ENE 13.8 mph - N/A   Clear